Flag for United Kingdom Weather past 2 weeks in Coventry, England, United Kingdom

Now
37 °F

Clear.


Feels Like: 31 °F
Forecast: 38 / 48 °F
Wind: 9 mph from West

Location: Coventry Airport

Current Time: Mar 4, 2015 at 1:08:08 AM

Latest Report: Mar 4, 2015 at 12:20 AM


Visibility: 10 mi

Pressure: 30.12 "Hg

Humidity: 81%

Dew point: 32 °F

Location of CoventryLocation

Historic Weather in Coventry — Graph

°F

Coventry temperature yesterday

Maximum temperature yesterday: 46 °F (at 3:20 PM)
Minimum temperature yesterday: 36 °F (at 6:50 AM)
Average temperature yesterday: 41 °F

Past Weeks' High & Low Weather Summary

 TemperatureHumidityPressure
High54 °F (Feb 25, 2:20 PM)100% (Feb 17, 7:20 AM)30.72 "Hg (Feb 17, 7:20 AM)
Low30 °F (Feb 17, 7:20 AM)40% (Mar 2, 3:20 PM)29.15 "Hg (Feb 23, 1:20 PM)
Average43 °F80%29.87 "Hg
* Reported Feb 16 11:20 PM — Mar 3 11:50 PM, Coventry, Weather by CustomWeather, © 2015

Note: Actual official high and low records may vary slightly from our data, if they occured in-between our weather recording intervals... More about our weather records

Advertising

Coventry weather history for previous 24 hours

 ConditionsComfort  
Time TempWeatherWind HumidityBarometerVisibility
11:50 PM
Tue, Mar 3
39 °FPassing clouds.10 mph75%30.12 "HgN/A
11:20 PM37 °FPassing clouds.10 mph81%30.09 "HgN/A
10:50 PM39 °FPassing clouds.14 mph75%30.09 "HgN/A
10:20 PM39 °FPassing clouds.14 mph75%30.07 "HgN/A
9:50 PM39 °FClear.15 mph70%30.07 "Hg10 mi
9:20 PM39 °FPassing clouds.15 mph70%30.04 "HgN/A
8:50 PM39 °FPassing clouds.14 mph65%30.04 "HgN/A
8:20 PM39 °FPassing clouds.14 mph65%30.04 "HgN/A
7:20 PM39 °FPassing clouds.13 mph61%30.01 "HgN/A
6:50 PM41 °FPassing clouds.13 mph57%30.01 "HgN/A
6:20 PM41 °FPassing clouds.12 mph57%30.01 "HgN/A
5:50 PM43 °FPassing clouds.13 mph53%29.98 "HgN/A
5:20 PM45 °FPassing clouds.20 mph46%29.98 "HgN/A
4:50 PM45 °FPassing clouds.22 mph46%29.98 "HgN/A
4:20 PM45 °FPassing clouds.18 mph49%29.98 "HgN/A
3:50 PM46 °FPassing clouds.20 mph46%29.95 "HgN/A
3:20 PM46 °FPassing clouds.17 mph50%29.95 "HgN/A
2:50 PM45 °FPassing clouds.22 mph57%29.95 "HgN/A
2:20 PM45 °FPassing clouds.21 mph57%29.95 "HgN/A
1:50 PM45 °FPassing clouds.16 mph61%29.95 "HgN/A
1:20 PM45 °FPassing clouds.15 mph61%29.95 "HgN/A
12:50 PM43 °FScattered clouds.20 mph61%29.95 "HgN/A
12:20 PM43 °FScattered clouds.16 mph66%29.92 "HgN/A
11:50 AM45 °FScattered clouds.18 mph66%29.92 "HgN/A
11:20 AM43 °FScattered clouds.16 mph71%29.92 "HgN/A
10:20 AM43 °FScattered clouds.16 mph76%29.89 "HgN/A
9:50 AM41 °FScattered clouds.16 mph87%29.89 "HgN/A
9:20 AM39 °FPassing clouds.15 mph93%29.89 "HgN/A
8:50 AM39 °FPassing clouds.13 mph93%29.89 "HgN/A
8:20 AM37 °FPassing clouds.10 mph100%29.86 "HgN/A
7:50 AM36 °FPassing clouds.9 mph100%29.86 "HgN/A
7:20 AM36 °FScattered clouds.8 mph100%29.86 "HgN/A
6:50 AM36 °FScattered clouds.8 mph100%29.86 "HgN/A
1:50 AM37 °FPassing clouds.9 mph93%29.89 "HgN/A
1:20 AM37 °FPassing clouds.12 mph93%29.92 "HgN/A
Weather by CustomWeather, © 2015

See weather overviewHow to use our weather pages